| time (UTC) | temp C | wind direction | speed KPH | gust KPH | rain 1hr cm | rain 24hr cm | rain mn cm | humidity % | barometer mb |
| 20260906183108 | 31 | 210 | 3.2 | 9.7 | 0.00 | 0.00 | 0.00 | 64 | 1015.6 |
| 20260906181610 | 30 | 0 | 3.2 | 8.0 | 0.00 | 0.00 | 0.00 | 66 | 1015.9 |
| 20260906180115 | 30 | 0 | 1.6 | 6.4 | 0.00 | 0.00 | 0.00 | 69 | 1016.0 |
| 20260906174607 | 30 | 0 | 0.0 | 16.1 | 0.00 | 0.00 | 0.00 | 71 | 1015.9 |
| 20260906173107 | 29 | 143 | 1.6 | 14.5 | 0.00 | 0.00 | 0.00 | 73 | 1016.1 |
| 20260906171606 | 28 | 134 | 1.6 | 14.5 | 0.00 | 0.00 | 0.00 | 74 | 1016.2 |
| 20260906170110 | 27 | 0 | 3.2 | 6.4 | 0.00 | 0.00 | 0.00 | 76 | 1016.5 |
| 20260906164607 | 27 | 159 | 3.2 | 16.1 | 0.00 | 0.00 | 0.00 | 79 | 1016.5 |
| 20260906163127 | 26 | 0 | 0.0 | 6.4 | 0.00 | 0.00 | 0.00 | 81 | 1016.6 |
| 20260906161610 | 26 | 0 | 0.0 | 6.4 | 0.00 | 0.00 | 0.00 | 82 | 1016.8 |
| 20260906160101 | 26 | 0 | 0.0 | 0.0 | 0.00 | 0.00 | 0.00 | 81 | 1017.2 |
| 20260906154607 | 26 | 0 | 0.0 | 4.8 | 0.00 | 0.00 | 0.00 | 81 | 1017.1 |
| 20260906153121 | 26 | 0 | 0.0 | 0.0 | 0.00 | 0.00 | 0.00 | 81 | 1017.1 |
| 20260906151609 | 26 | 0 | 0.0 | 6.4 | 0.00 | 0.00 | 0.00 | 81 | 1017.1 |
| 20260906150110 | 26 | 242 | 0.0 | 22.5 | 0.00 | 0.00 | 0.00 | 81 | 1017.6 |
| 20260906144605 | 26 | 164 | 6.4 | 20.9 | 0.00 | 0.00 | 0.00 | 81 | 1016.5 |
| 20260906143103 | 26 | 128 | 6.4 | 27.4 | 0.00 | 0.00 | 0.00 | 81 | 1016.3 |
| 20260906141601 | 26 | 0 | 4.8 | 20.9 | 0.00 | 0.00 | 0.00 | 82 | 1016.2 |
| 20260906140108 | 26 | 126 | 4.8 | 22.5 | 0.00 | 0.00 | 0.00 | 82 | 1016.4 |
| 20260906134603 | 26 | 142 | 6.4 | 24.1 | 0.00 | 0.00 | 0.00 | 81 | 1016.6 |
| 20260906133132 | 26 | 136 | 3.2 | 14.5 | 0.00 | 0.00 | 0.00 | 81 | 1016.5 |
| 20260906131616 | 26 | 124 | 3.2 | 16.1 | 0.00 | 0.00 | 0.00 | 82 | 1016.3 |
| 20260906130113 | 26 | 139 | 8.0 | 17.7 | 0.00 | 0.00 | 0.00 | 83 | 1016.4 |
| 20260906124601 | 25 | 0 | 1.6 | 14.5 | 0.00 | 0.00 | 0.00 | 84 | 1016.3 |
| 20260906123107 | 25 | 0 | 0.0 | 14.5 | 0.00 | 0.00 | 0.00 | 84 | 1016.0 |
| 20260906121606 | 25 | 0 | 0.0 | 17.7 | 0.00 | 0.00 | 0.00 | 84 | 1015.8 |
| 20260906120106 | 25 | 0 | 0.0 | 4.8 | 0.00 | 0.00 | 0.00 | 84 | 1015.6 |
| 20260906114558 | 25 | 137 | 1.6 | 16.1 | 0.00 | 0.00 | 0.00 | 84 | 1015.6 |
| 20260906113059 | 25 | 117 | 3.2 | 17.7 | 0.00 | 0.00 | 0.00 | 84 | 1015.3 |
| 20260906111606 | 25 | 0 | 1.6 | 6.4 | 0.00 | 0.00 | 0.00 | 84 | 1015.3 |
| 20260906110106 | 25 | 0 | 1.6 | 6.4 | 0.00 | 0.00 | 0.00 | 83 | 1015.5 |
| 20260906104606 | 25 | 151 | 1.6 | 4.8 | 0.00 | 0.00 | 0.00 | 83 | 1015.4 |
| 20260906103107 | 25 | 0 | 0.0 | 4.8 | 0.00 | 0.00 | 0.00 | 83 | 1015.3 |
| 20260906101605 | 25 | 121 | 0.0 | 3.2 | 0.00 | 0.00 | 0.00 | 82 | 1015.2 |
| 20260906100112 | 26 | 146 | 1.6 | 12.9 | 0.00 | 0.00 | 0.00 | 81 | 1015.2 |
| 20260906094609 | 26 | 0 | 1.6 | 17.7 | 0.00 | 0.00 | 0.00 | 81 | 1015.0 |
| 20260906093110 | 26 | 0 | 0.0 | 11.3 | 0.00 | 0.00 | 0.00 | 80 | 1015.1 |
| 20260906091604 | 26 | 0 | 0.0 | 8.0 | 0.00 | 0.00 | 0.00 | 80 | 1015.1 |
| 20260906090125 | 26 | 0 | 0.0 | 12.9 | 0.00 | 0.00 | 0.00 | 80 | 1015.2 |
| 20260906084606 | 26 | 0 | 1.6 | 12.9 | 0.00 | 0.00 | 0.00 | 79 | 1015.2 |
| 20260906083102 | 26 | 0 | 0.0 | 6.4 | 0.00 | 0.00 | 0.00 | 78 | 1015.0 |
| 20260906081604 | 26 | 135 | 1.6 | 17.7 | 0.00 | 0.00 | 0.00 | 78 | 1015.0 |
| 20260906080130 | 26 | 159 | 0.0 | 12.9 | 0.00 | 0.00 | 0.00 | 77 | 1015.0 |
| 20260906074600 | 26 | 140 | 1.6 | 16.1 | 0.00 | 0.00 | 0.00 | 77 | 1015.1 |
| 20260906073105 | 26 | 0 | 0.0 | 19.3 | 0.00 | 0.00 | 0.00 | 77 | 1014.7 |
| 20260906071604 | 27 | 156 | 3.2 | 19.3 | 0.00 | 0.00 | 0.00 | 77 | 1014.8 |
| 20260906070104 | 27 | 0 | 0.0 | 14.5 | 0.00 | 0.00 | 0.00 | 77 | 1015.0 |
| 20260906064556 | 27 | 0 | 0.0 | 9.7 | 0.00 | 0.00 | 0.00 | 77 | 1015.0 |
| 20260906063107 | 27 | 150 | 3.2 | 17.7 | 0.00 | 0.00 | 0.00 | 76 | 1015.2 |
| 20260906061607 | 27 | 151 | 0.0 | 17.7 | 0.00 | 0.00 | 0.00 | 76 | 1015.2 |
| 20260906060107 | 27 | 0 | 1.6 | 17.7 | 0.00 | 0.00 | 0.00 | 75 | 1015.3 |
| 20260906054557 | 27 | 142 | 3.2 | 19.3 | 0.00 | 0.00 | 0.00 | 75 | 1015.4 |
| 20260906053106 | 27 | 0 | 0.0 | 9.7 | 0.00 | 0.00 | 0.00 | 74 | 1015.3 |
| 20260906051605 | 28 | 0 | 3.2 | 14.5 | 0.00 | 0.00 | 0.00 | 74 | 1015.1 |
| 20260906050104 | 28 | 108 | 0.0 | 8.0 | 0.00 | 0.00 | 0.00 | 74 | 1015.1 |
| 20260906044605 | 28 | 132 | 3.2 | 8.0 | 0.00 | 0.00 | 0.00 | 74 | 1015.2 |
| 20260906043104 | 28 | 107 | 0.0 | 8.0 | 0.00 | 0.00 | 0.00 | 74 | 1015.3 |
| 20260906041604 | 28 | 110 | 1.6 | 6.4 | 0.00 | 0.00 | 0.00 | 74 | 1015.5 |
| 20260906034607 | 28 | 84 | 3.2 | 6.4 | 0.00 | 0.00 | 0.00 | 74 | 1015.4 |
| 20260906033106 | 28 | 114 | 1.6 | 8.0 | 0.00 | 0.00 | 0.00 | 74 | 1015.3 |
| 20260906031602 | 28 | 0 | 0.0 | 8.0 | 0.00 | 0.00 | 0.00 | 74 | 1015.1 |
| 20260906030059 | 28 | 108 | 3.2 | 6.4 | 0.00 | 0.00 | 0.00 | 74 | 1015.0 |
| 20260906024608 | 29 | 75 | 0.0 | 6.4 | 0.00 | 0.00 | 0.00 | 74 | 1014.6 |
| 20260906023103 | 29 | 0 | 1.6 | 12.9 | 0.00 | 0.00 | 0.00 | 73 | 1014.3 |
| 20260906021606 | 29 | 115 | 3.2 | 8.0 | 0.00 | 0.00 | 0.00 | 72 | 1014.2 |
| 20260906020112 | 30 | 0 | 1.6 | 8.0 | 0.00 | 0.00 | 0.00 | 71 | 1014.0 |
| 20260906014616 | 30 | 0 | 1.6 | 6.4 | 0.00 | 0.00 | 0.00 | 69 | 1013.7 |
| 20260906013107 | 30 | 97 | 1.6 | 4.8 | 0.00 | 0.00 | 0.00 | 68 | 1013.4 |
| 20260906011619 | 31 | 89 | 1.6 | 6.4 | 0.00 | 0.00 | 0.00 | 67 | 1013.4 |
| 20260906010105 | 31 | 80 | 1.6 | 16.1 | 0.00 | 0.00 | 0.00 | 66 | 1013.4 |
| 20260906004600 | 31 | 130 | 1.6 | 16.1 | 0.00 | 0.00 | 0.00 | 65 | 1013.2 |
| 20260906003108 | 31 | 0 | 1.6 | 9.7 | 0.00 | 0.00 | 0.00 | 64 | 1013.2 |
| 20260906001605 | 32 | 67 | 3.2 | 11.3 | 0.00 | 0.00 | 0.00 | 62 | 1013.2 |
| 20260906000105 | 32 | 139 | 4.8 | 17.7 | 0.00 | 0.00 | 0.00 | 60 | 1012.9 |
| 20260905234558 | 32 | 134 | 9.7 | 27.4 | 0.00 | 0.00 | 0.00 | 59 | 1012.8 |
| 20260905233134 | 32 | 138 | 6.4 | 24.1 | 0.00 | 0.00 | 0.00 | 59 | 1012.9 |
| 20260905231610 | 32 | 142 | 4.8 | 19.3 | 0.00 | 0.00 | 0.00 | 58 | 1013.0 |
| 20260905230105 | 32 | 140 | 6.4 | 22.5 | 0.00 | 0.00 | 0.00 | 58 | 1013.0 |
| 20260905224625 | 32 | 121 | 6.4 | 19.3 | 0.00 | 0.00 | 0.00 | 57 | 1012.9 |
| 20260905223108 | 32 | 124 | 6.4 | 24.1 | 0.00 | 0.00 | 0.00 | 56 | 1012.9 |
| 20260905221608 | 32 | 153 | 3.2 | 24.1 | 0.00 | 0.00 | 0.00 | 57 | 1012.7 |
| 20260905220105 | 32 | 119 | 12.9 | 29.0 | 0.00 | 0.00 | 0.00 | 56 | 1012.6 |
| 20260905214600 | 32 | 134 | 16.1 | 30.6 | 0.00 | 0.00 | 0.00 | 55 | 1012.6 |
| 20260905213103 | 32 | 120 | 4.8 | 20.9 | 0.00 | 0.00 | 0.00 | 56 | 1013.0 |
| 20260905211613 | 32 | 134 | 11.3 | 29.0 | 0.00 | 0.00 | 0.00 | 55 | 1013.2 |
| 20260905210105 | 32 | 132 | 11.3 | 27.4 | 0.00 | 0.00 | 0.00 | 55 | 1013.4 |
| 20260905204606 | 32 | 138 | 11.3 | 30.6 | 0.00 | 0.00 | 0.00 | 56 | 1013.5 |
| 20260905203101 | 31 | 125 | 12.9 | 30.6 | 0.00 | 0.00 | 0.00 | 55 | 1013.8 |
| 20260905201614 | 31 | 126 | 4.8 | 27.4 | 0.00 | 0.00 | 0.00 | 56 | 1014.3 |
| 20260905200107 | 31 | 46 | 8.0 | 22.5 | 0.00 | 0.00 | 0.00 | 56 | 1014.7 |
| 20260905194602 | 31 | 85 | 4.8 | 25.7 | 0.00 | 0.00 | 0.00 | 57 | 1015.3 |
| 20260905193101 | 31 | 61 | 9.7 | 27.4 | 0.00 | 0.00 | 0.00 | 56 | 1015.4 |
| 20260905191611 | 31 | 128 | 12.9 | 37.0 | 0.00 | 0.00 | 0.00 | 57 | 1015.4 |
| 20260905190134 | 30 | 107 | 6.4 | 30.6 | 0.00 | 0.00 | 0.00 | 63 | 1015.5 |
| 20260905184621 | 30 | 75 | 6.4 | 27.4 | 0.00 | 0.00 | 0.00 | 63 | 1016.2 |